Weather History for Nausori, Fiji

Change the Weather History Date:

Friday, November 2, 2012

  Actual Average Record
Temperature  
Mean Temperature 76 °F -  
Max Temperature 83 °F - - ()
Min Temperature 68 °F - - ()
Cooling Degree Days 10    
Growing Degree Days 26 (Base 50)    
Moisture  
Dew Point 69 °F    
Average Humidity 77    
Maximum Humidity 100    
Minimum Humidity 56    
Precipitation  
Precipitation 0.00 in - - ()
Sea Level Pressure  
Sea Level Pressure 29.87 in    
Wind  
Wind Speed 2 mph ()    
Max Wind Speed 12 mph    
Max Gust Speed -    
Visibility 12.0 miles    
Events      
T = Trace of Precipitation, MM = Missing Value Source: Averaged Metar Reports

Daily Weather History Graph

Daily Weather History Graph

Search for Another Location

Airport:

Trip Planner

Search our weather history database for the weather conditions in past years. The results will help you decide how hot, cold, wet, or windy it might be!

Date:

Astronomy

Nov. 02, 2012 Rise Set
Actual Time 6:26 AM FJST 7:12 PM FJST
Civil Twilight 6:03 AM FJST 7:35 PM FJST
Nautical Twilight 5:36 AM FJST 8:02 PM FJST
Astronomical Twilight 5:09 AM FJST 8:29 PM FJST
Moon 9:58 PM FJST (11/2) 8:34 AM FJST (11/2)
Length of Visible Light 13h 32m
Length of Day
12h 46m
Waning Gibbous, 91% of the Moon is Illuminated
Nov 2
Waning Gibbous
Nov 7
Last Quarter
Nov 14
New
Nov 21
First Quarter
Nov 29
Full

Hourly Weather History & Observations

Time (FJST) Temp. Heat Index Dew Point Humidity Pressure Visibility Wind Dir Wind Speed Gust Speed Precip Events Conditions
12:00 AM 75.2 °F - 68.0 °F 78% 29.89 in 24.9 mi Calm Calm - N/A   Mostly Cloudy
1:00 AM 75 °F - 68 °F 74% 29.90 in 12 mi Calm Calm - -   Partly Cloudy
1:00 AM 75.2 °F - 68.0 °F 78% 29.89 in 24.9 mi Calm Calm - N/A   Mostly Cloudy
2:00 AM 73.4 °F - 68.0 °F 83% 29.86 in 24.9 mi Calm Calm - N/A   Mostly Cloudy
3:00 AM 73.4 °F - 68.0 °F 83% 29.86 in 24.9 mi Calm Calm - N/A   Mostly Cloudy
4:00 AM 71 °F - 70 °F 97% 29.86 in 12 mi Calm Calm - -   Partly Cloudy
4:00 AM 71.6 °F - 69.8 °F 94% 29.86 in 24.9 mi Calm Calm - N/A   Partly Cloudy
5:00 AM 69.8 °F - 68.0 °F 94% 29.83 in 24.9 mi Calm Calm - N/A   Partly Cloudy
6:00 AM 68.0 °F - 68.0 °F 100% 29.86 in 24.9 mi Calm Calm - N/A   Partly Cloudy
7:00 AM 69 °F - 69 °F 99% 29.88 in 31 mi Calm Calm - -   Partly Cloudy
7:00 AM 69.8 °F - 68.0 °F 94% 29.86 in 31.1 mi Calm Calm - N/A   Mostly Cloudy
8:00 AM 71.6 °F - 69.8 °F 94% 29.89 in 31.1 mi Calm Calm - N/A   Mostly Cloudy
9:00 AM 78.8 °F - 71.6 °F 78% 29.89 in 31.1 mi Calm Calm - N/A   Partly Cloudy
10:00 AM 80 °F - 69 °F 61% 29.91 in 31 mi Calm Calm - -   Partly Cloudy
10:00 AM 80.6 °F 83.2 °F 68.0 °F 65% 29.89 in 31.1 mi Calm Calm - N/A   Mostly Cloudy
11:00 AM 82.4 °F 86.3 °F 69.8 °F 66% 29.89 in 31.1 mi Calm Calm - N/A   Mostly Cloudy
12:00 PM 82.4 °F 86.3 °F 69.8 °F 66% 29.89 in 31.1 mi ENE 4.6 mph - N/A   Mostly Cloudy
1:00 PM 83 °F - 70 °F 56% 29.89 in 31 mi ENE 6.9 mph - -   Partly Cloudy
1:00 PM 82.4 °F 86.3 °F 69.8 °F 66% 29.89 in 31.1 mi ENE 6.9 mph - N/A   Scattered Clouds
2:00 PM 80.6 °F 83.9 °F 69.8 °F 70% 29.86 in 31.1 mi ESE 11.5 mph - N/A   Mostly Cloudy
3:00 PM 82.4 °F 86.3 °F 69.8 °F 66% 29.83 in 31.1 mi East 11.5 mph - N/A   Scattered Clouds
4:00 PM 81 °F - 69 °F 58% 29.85 in 31 mi East 10.4 mph - -   Partly Cloudy
4:00 PM 80.6 °F 83.2 °F 68.0 °F 65% 29.83 in 31.1 mi East 10.4 mph - N/A   Mostly Cloudy
5:00 PM 80.6 °F 83.9 °F 69.8 °F 70% 29.83 in 31.1 mi East 11.5 mph - N/A   Scattered Clouds
6:00 PM 78.8 °F - 69.8 °F 74% 29.83 in 31.1 mi East 8.1 mph - N/A   Mostly Cloudy
7:00 PM 78 °F - 70 °F 70% 29.87 in 31 mi East 5.8 mph - -   Partly Cloudy
7:00 PM 78.8 °F - 69.8 °F 74% 29.86 in 31.1 mi East 5.8 mph - N/A   Mostly Cloudy
8:00 PM 77.0 °F - 69.8 °F 78% 29.86 in 24.9 mi East 6.9 mph - N/A   Mostly Cloudy
9:00 PM 77.0 °F - 71.6 °F 83% 29.86 in 24.9 mi Calm Calm - N/A   Mostly Cloudy
10:00 PM 77 °F - 72 °F 79% 29.89 in 12 mi Calm Calm - -   Partly Cloudy
10:00 PM 77.0 °F - 71.6 °F 83% 29.89 in 24.9 mi Calm Calm - N/A   Mostly Cloudy
11:00 PM 77.0 °F - 69.8 °F 78% 29.89 in 24.9 mi Calm Calm - N/A   Scattered Clouds